EW3232 Weather Reports


Display with metric or nautical units.
time (UTC)temp
F
wind
direction
speed
MPH
gust
MPH
rain 1hr
in
rain 24hr
in
rain mn
in
humidity
%
barometer
mb
20260503040011 57 50 2.0 3.0 0.00 0.39 0.13 96 1015.1
20260503034638 57 67 1.0 2.0 0.00 0.39 0.13 96 1015.2
20260503033201 57 76 0.0 3.0 0.00 0.39 0.13 96 1015.3
20260503031631 57 48 0.0 3.0 0.01 0.39 0.13 96 1015.7
20260503030041 57 29 2.0 4.0 0.02 0.39 0.13 96 1015.7
20260503024606 56 43 2.0 4.0 0.02 0.39 0.13 96 1015.8
20260503023041 56 194 0.0 2.0 0.02 0.39 0.13 96 1015.9
20260503021502 56 194 0.0 2.0 0.02 0.39 0.12 96 1016.1
20260503020042 56 194 1.0 3.0 0.01 0.38 0.11 96 1016.0
20260503014643 56 114 0.0 2.0 0.02 0.38 0.11 96 1016.0
20260503013112 56 114 0.0 2.0 0.02 0.38 0.11 95 1016.2
20260503011641 56 114 0.0 2.0 0.03 0.37 0.10 95 1016.5
20260503004634 56 114 0.0 2.0 0.06 0.37 0.09 95 1017.0
20260503003109 56 110 1.0 2.0 0.07 0.36 0.09 95 1017.0
20260503001553 56 232 0.0 2.0 0.06 0.35 0.07 95 1017.1
20260503000107 56 232 0.0 2.0 0.05 0.33 0.06 95 1017.3
20260502234618 56 232 0.0 2.0 0.03 0.40 0.03 95 1017.5
20260502233111 56 232 0.0 2.0 0.02 0.39 0.02 94 1017.7
20260502231559 56 233 0.0 2.0 0.01 0.38 0.01 94 1017.8
20260502230042 57 233 0.0 2.0 0.01 0.38 0.01 94 1017.8
20260502224516 57 215 1.0 2.0 0.00 0.37 0.00 94 1017.9
20260502223136 57 280 0.0 2.0 0.00 0.37 0.00 94 1017.8
20260502220003 56 352 0.0 3.0 0.00 0.37 0.00 94 1017.8
20260502214511 57 278 0.0 2.0 0.00 0.38 0.37 94 1017.9
20260502211609 57 278 0.0 0.0 0.00 0.38 0.37 94 1018.0
20260502210003 57 240 1.0 3.0 0.00 0.38 0.37 94 1018.2
20260502204503 57 271 0.0 2.0 0.00 0.39 0.37 94 1018.1
20260502203142 57 271 0.0 2.0 0.00 0.39 0.37 94 1018.1
20260502201629 57 67 0.0 2.0 0.00 0.39 0.37 94 1018.1
20260502200107 57 67 0.0 3.0 0.00 0.39 0.37 94 1017.9
20260502194520 57 106 3.0 8.0 0.00 0.45 0.37 94 1017.9
20260502191632 57 60 2.0 7.0 0.00 0.45 0.37 95 1017.6
20260502190104 57 56 2.0 6.0 0.00 0.45 0.37 95 1017.9
20260502184545 57 77 3.0 7.0 0.00 0.51 0.37 95 1017.7
20260502181640 58 86 3.0 7.0 0.00 0.51 0.37 95 1017.8
20260502170150 58 77 4.0 9.0 0.00 0.52 0.37 96 1018.5
20260502163029 58 11 4.0 10.0 0.00 0.52 0.37 96 1018.3
20260502161528 58 71 5.0 12.0 0.00 0.52 0.37 96 1018.5
20260502160112 58 85 6.0 12.0 0.01 0.52 0.37 96 1018.4
20260502151505 58 67 7.0 11.0 0.02 0.52 0.37 96 1018.6
20260502150139 58 85 8.0 11.0 0.02 0.51 0.36 96 1018.9
20260502130148 58 68 6.0 11.0 0.00 0.48 0.33 94 1020.6
20260502123107 58 92 5.0 10.0 0.00 0.48 0.33 94 1020.8
20260502121558 58 83 5.0 10.0 0.00 0.48 0.33 93 1020.9
20260502113136 59 85 4.0 9.0 0.00 0.48 0.33 93 1021.0
20260502111607 59 58 8.0 12.0 0.00 0.48 0.33 93 1021.1
20260502104633 58 79 7.0 11.0 0.00 0.48 0.33 94 1021.5
20260502103056 58 51 9.0 13.0 0.00 0.48 0.33 94 1021.7
20260502101539 58 101 5.0 12.0 0.00 0.48 0.33 95 1021.8
20260502090123 58 91 7.0 11.0 0.13 0.44 0.28 95 1021.5
20260502070117 58 359 0.0 2.0 0.06 0.33 0.16 95 1021.5
20260502064632 58 72 0.0 2.0 0.02 0.28 0.12 95 1021.5
20260502061615 58 90 0.0 2.0 0.02 0.28 0.12 95 1021.5
20260502060035 58 245 0.0 2.0 0.00 0.28 0.10 95 1021.4
20260502054524 58 245 0.0 2.0 0.00 0.28 0.10 95 1021.2
20260502051527 57 245 0.0 2.0 0.00 0.28 0.10 95 1021.1
20260502050138 57 245 0.0 2.0 0.00 0.28 0.10 95 1021.2
20260502044637 57 245 1.0 1.0 0.00 0.28 0.10 95 1021.1
20260502043108 57 245 1.0 2.0 0.00 0.28 0.10 94 1020.9
20260502041637 57 137 0.0 2.0 0.00 0.28 0.10 94 1021.1